NANOFF A

导读 | 星芒AI

NANOFF A 是一颗小型卫星,主要用于技术验证和地球观测任务。该卫星由某科研机构或公司研发,旨在测试新型通信、导航或遥感技术。其设计紧凑、成本较低,适合快速部署和实验性任务。NANOFF A 的发射有助于推动小型卫星技术的发展,并为未来更复杂的太空任务积累经验。

基本信息
目录编号:
58810
目录名称:
NANOFF A
国际标识:
2023-185T
轨道中心:
EARTH
卫星名称:
NANOFF A
卫星全名:
--
卫星状态:
在轨 (已飞行745 天)
发射日期:
2023-12-01 UTC
国别 :
德国 (DE)
星等 :
--
轨道信息
数据来源 国际轨道数据
星历时间: 2025-12-15T07:00:03+0800
19小时前
查看轨道信息
半长轴: 6912.26km
偏心率: 0.0009556
轨道倾角: 97.552°
近地点辐角 215.702°
升交点赤经 53.966°
平近点角 144.357°
近地点: 527.519km
远地点: 540.731km
周期: 95.321分钟
每日圈数: 15.106807
详细信息
使用方式:
暂无
2D轨道图
3D轨道图
轨道高度分析图
轨道倾角分析图
轨道综合分析图
查看轨道综合分析图